CZ-3C DEB, 48544

Orbit data source: Space-Track

CZ-3C DEB, 48544 is space debris in HEO originally from a launch on Sun, 31 Oct 2010 UTC launched from the Xichang Space Center, China (XSC). Debris objects in space refer to the collection of defunct objects orbiting the Earth. Examples of debris include non-operational satellites, rocket bodies, and fragments generated from explosions, collisions, or faulty payload assembly.

Loading next visibility...
Identifier
48544, 2010-057BP
Orbit
HEO
Country
Flag of CNCN / PRC
Related business
Manufacturer
CALT
Mission
Spacecraft
Bus & Motor
Unknown
Mass
Unknown
Launch date (UTC)
2010-10-31 (15 years ago)
Launch vehicle
Unknown
Launch site
Xichang Space Center, China (XSC)
Object type
Payload
Rocket body
Debris
Shape & HBR
Unknown shape, 0.3 m
Radar Cross Section
Medium (>0.1 m² and <1 m²)

Expand to show TLE details & history
Last TLE update: 20 hours ago

TLE from 20 hours ago
0 CZ-3C DEB
1 48544U 10057BP  25346.55750085  .00007960  00000-0  66834-2 0  9994
2 48544  20.3935 109.4593 4838831  16.8626 354.7805  5.71726157218154
Epoch: 2025-12-12T13:22Z
TLE epoch observation values (Epoch: 2025-12-12T13:22:48.073Z)
Latitude
Longitude
-172.75215°
Altitude
535.528 km
Speed
9.227 km/s
True Right ascension
07h 17m 46s
True Declination
0° 00' 00"
Sunlit
Object was in full shadow at epoch
Visualization orbit readout
Latitude
Unknown
Longitude
Unknown
Altitude
Unknown
Speed
Unknown
Apparent Right ascension
Unknown
Apparent Declination
Unknown
Sunlit
N/A
Visualization observer readout
Local Sidereal Time
07:32:43
Azimuth
Unknown
Elevation
Unknown
Doppler factor
Unknown
Orbital elements
Apogee altitude
13,231.828 km
Perigee altitude
442.504 km
Semi-major axis
13,215.303 km
Eccentricity
0.48388
Inclination
20.3935°
RAAN
109.4593°
Arg. of periapsis
16.8626°
True anomaly
343.01588°
Mean anomaly
354.7805°
Eccentric anomaly
349.93543°
Mean motion
1.42866 °/min
Orbital period
251.99 mins
BSTAR
0.0066834
Loading maneuver chart data...
Computing Atmospheric mass density...
Loading historical data...
Loading historical data...
Loading historical data...
Loading historical data...
Loading historical data...
Loading historical data...
Loading historical data...

Documentation

Showing up to 5 results
|